Time,TemperatureF,DewpointF,PressureIn,WindDirection,WindDirectionDegrees,WindSpeedMPH,WindSpeedGustMPH,Humidity,HourlyPrecipIn,Conditions,Clouds,dailyrainin,SoftwareType,DateUTC
2013-06-14 02:03:00,-13.0,-13.6,29.59,North,0,0.0,0.0,97,0.00,,,0.00,WUHU216HW,2013-06-14 06:03:00,
2013-06-14 02:05:00,-13.0,-13.6,29.59,North,0,0.0,0.0,97,0.00,,,0.00,WUHU216HW,2013-06-14 06:05:00,
2013-06-14 02:10:00,-13.0,-13.6,29.60,North,0,0.0,0.0,97,0.00,,,0.00,WUHU216HW,2013-06-14 06:10:00,
2013-06-14 02:15:00,-13.0,-13.6,29.60,North,0,0.0,0.0,97,0.00,,,0.00,WUHU216HW,2013-06-14 06:15:00,
2013-06-14 02:20:00,-13.0,-13.6,29.60,North,0,0.0,0.0,97,0.00,,,0.00,WUHU216HW,2013-06-14 06:20:00,
2013-06-14 02:25:00,-13.0,-13.6,29.60,North,0,0.0,0.0,97,0.00,,,0.00,WUHU216HW,2013-06-14 06:25:00,
2013-06-14 04:28:00,21.2,21.0,29.65,North,0,0.0,0.0,99,0.00,,,0.00,WUHU216HW,2013-06-14 08:28:00,
2013-06-14 04:33:00,23.7,23.4,29.65,North,0,0.0,0.0,99,0.00,,,0.00,WUHU216HW,2013-06-14 08:33:00,
2013-06-14 04:38:00,23.7,23.4,29.65,North,0,0.0,0.0,99,0.00,,,0.00,WUHU216HW,2013-06-14 08:38:00,
2013-06-14 04:43:00,23.7,23.4,29.65,North,0,0.0,0.0,99,0.00,,,0.00,WUHU216HW,2013-06-14 08:43:00,
2013-06-14 04:48:00,23.7,23.4,29.66,North,0,0.0,0.0,99,0.00,,,0.00,WUHU216HW,2013-06-14 08:48:00,
2013-06-14 04:53:00,23.7,23.4,29.66,North,0,0.0,0.0,99,0.00,,,0.00,WUHU216HW,2013-06-14 08:53:00,
2013-06-14 06:56:00,-18.2,-19.0,29.70,North,0,0.0,0.0,96,0.00,,,0.00,WUHU216HW,2013-06-14 10:56:00,
2013-06-14 07:01:00,-17.5,-18.3,29.70,North,0,0.0,0.0,96,0.00,,,0.00,WUHU216HW,2013-06-14 11:01:00,
2013-06-14 07:06:00,-8.8,-9.2,29.70,North,0,0.0,0.0,98,0.00,,,0.00,WUHU216HW,2013-06-14 11:06:00,
2013-06-14 07:11:00,-8.8,-9.2,29.70,North,0,0.0,0.0,98,0.00,,,0.00,WUHU216HW,2013-06-14 11:11:00,
2013-06-14 07:16:00,-8.8,-9.2,29.70,North,0,0.0,0.0,98,0.00,,,0.00,WUHU216HW,2013-06-14 11:16:00,
2013-06-14 09:36:00,-2.5,-2.7,29.76,North,0,0.0,0.0,99,0.00,,,0.00,WUHU216HW,2013-06-14 13:36:00,
2013-06-14 09:41:00,4.1,3.9,29.76,North,0,0.0,0.0,99,0.00,,,0.00,WUHU216HW,2013-06-14 13:41:00,
2013-06-14 09:47:00,4.1,3.9,29.77,North,0,0.0,0.0,99,0.00,,,0.00,WUHU216HW,2013-06-14 13:47:00,
2013-06-14 09:52:00,4.1,3.9,29.77,North,0,0.0,0.0,99,0.00,,,0.00,WUHU216HW,2013-06-14 13:52:00,
2013-06-14 22:39:00,55.1,54.8,29.89,North,0,0.0,0.0,99,0.00,,,0.00,WUHU216HW,2013-06-15 02:39:00,
2013-06-14 22:44:00,55.2,54.9,29.89,North,0,0.0,0.0,99,0.00,,,0.00,WUHU216HW,2013-06-15 02:44:00,
2013-06-14 22:49:00,55.2,54.9,29.89,North,0,0.0,0.0,99,0.00,,,0.00,WUHU216HW,2013-06-15 02:49:00,
2013-06-14 22:54:00,55.2,54.9,29.89,North,0,0.0,0.0,99,0.00,,,0.00,WUHU216HW,2013-06-15 02:54:00,
2013-06-14 22:59:00,55.2,54.9,29.89,North,0,0.0,0.0,99,0.00,,,0.00,WUHU216HW,2013-06-15 02:59:00,
2013-06-14 23:04:00,55.2,54.9,29.89,North,0,0.0,0.0,99,0.00,,,0.00,WUHU216HW,2013-06-15 03:04:00,
2013-06-14 23:59:00,16.7,16.5,29.90,North,0,0.0,0.0,99,0.00,,,0.00,WUHU216HW,2013-06-15 03:59:00,